1998-067XK

Last updated on Sun Dec 14 2025 00:02:12 GMT+0000 (Coordinated Universal Time)

1 65731U 98067XK 25347.11717013 .00128039 00000+0 12217-2 0 9991 2 65731 51.6274 135.3174 0005024 248.4122 111.6339 15.65831493 13202
UTC large
Height (km)
Speed (km/s)
/
Latitude / Longitude
Inclination (degrees)
Orbital Period (minutes)
Azimuth
Elevation
Range (km)
Doppler Factor

Next 0 passes for location: London (51.5072 / 0.1276)

Sorry there are no passes over London.